Homestead, FL

8:26 AM EST on February 24, 2017 (GMT -0500)
Dade County-Homestead Regional

Weather History for KHST - March, 2013

Change the Weather History Date:

Sunday, March 10, 2013

  Actual Average Record
Temperature  
Mean Temperature 68 °F -  
Max Temperature 75 °F 79 °F 95 °F (2003)
Min Temperature 60 °F 57 °F 35 °F (1940)
Cooling Degree Days 2    
Growing Degree Days 18 (Base 50)    
Moisture  
Dew Point 56 °F    
Average Humidity 65    
Maximum Humidity 82    
Minimum Humidity 53    
Precipitation  
Precipitation 0.00 in - - ()
Sea Level Pressure  
Sea Level Pressure 30.12 in    
Wind  
Wind Speed 9 mph (ENE)    
Max Wind Speed 15 mph    
Max Gust Speed 22 mph    
Visibility 10 miles    
Events      
Averages and records for this station are not official NWS values.
T = Trace of Precipitation, MM = Missing Value Source: NWS Daily Summary

Daily Weather History Graph

Daily Weather History Graph

Search for Another Location

Airport or City:

Trip Planner

Search our weather history database for the weather conditions in past years. The results will help you decide how hot, cold, wet, or windy it might be!

Date:

Astronomy

Mar. 10, 2013 Rise Set
Actual Time 7:35 AM EDT 7:28 PM EDT
Civil Twilight 7:12 AM EDT 7:51 PM EDT
Nautical Twilight 6:46 AM EDT 8:17 PM EDT
Astronomical Twilight 6:19 AM EDT 8:44 PM EDT
Moon 6:30 AM EDT (3/10) 6:35 PM EDT (3/10)
Length of Visible Light 12h 38m
Length of Day
11h 52m
Waning Crescent, 2% of the Moon is Illuminated
Mar 10
Waning Crescent
Mar 11
New
Mar 19
First Quarter
Mar 27
Full
Apr 3
Last Quarter

Hourly Weather History & Observations

Time (EDT) Temp. Dew Point Humidity Pressure Visibility Wind Dir Wind Speed Gust Speed Precip Events Conditions
12:58 AM 64.4 °F 53.6 °F 68% 30.16 in 10.0 mi ENE 9.2 mph - N/A   Clear
1:58 AM 64.4 °F 53.6 °F 68% 30.12 in 10.0 mi ENE 8.1 mph - N/A   Clear
3:58 AM 64.4 °F 53.6 °F 68% 30.10 in 10.0 mi ENE 8.1 mph - N/A   Partly Cloudy
4:58 AM 64.4 °F 53.6 °F 68% 30.11 in 10.0 mi ENE 6.9 mph - N/A   Scattered Clouds
5:58 AM 62.6 °F 53.6 °F 72% 30.11 in 10.0 mi NNE 1.2 mph - N/A   Mostly Cloudy
6:58 AM 62.6 °F 55.4 °F 77% 30.12 in 10.0 mi North 2.3 mph - N/A   Mostly Cloudy
7:58 AM 60.8 °F 55.4 °F 82% 30.12 in 10.0 mi NW 2.3 mph - N/A   Mostly Cloudy
8:58 AM 68.0 °F 55.4 °F 64% 30.13 in 10.0 mi East 9.2 mph - N/A   Scattered Clouds
9:58 AM 69.8 °F 53.6 °F 56% 30.14 in 10.0 mi East 5.8 mph - N/A   Mostly Cloudy
10:58 AM 71.6 °F 55.4 °F 57% 30.15 in 10.0 mi ENE 13.8 mph - N/A   Scattered Clouds
11:58 AM 73.4 °F 55.4 °F 53% 30.16 in 10.0 mi East 15.0 mph 19.6 mph N/A   Clear
12:58 PM 73.4 °F 55.4 °F 53% 30.15 in 10.0 mi East 13.8 mph 21.9 mph N/A   Clear
1:58 PM 75.2 °F 57.2 °F 53% 30.12 in 10.0 mi East 12.7 mph 21.9 mph N/A   Clear
2:58 PM 75.2 °F 57.2 °F 53% 30.10 in 10.0 mi ENE 15.0 mph 19.6 mph N/A   Clear
3:58 PM 75.2 °F 57.2 °F 53% 30.09 in 10.0 mi East 12.7 mph - N/A   Clear
4:58 PM 75.2 °F 57.2 °F 53% 30.08 in 10.0 mi East 10.4 mph - N/A   Clear
5:58 PM 73.4 °F 57.2 °F 57% 30.08 in 10.0 mi East 11.5 mph - N/A   Clear
6:58 PM 71.6 °F 59.0 °F 64% 30.09 in 10.0 mi East 10.4 mph - N/A   Scattered Clouds
7:58 PM 68.0 °F 59.0 °F 73% 30.09 in 10.0 mi East 8.1 mph - N/A   Clear
8:58 PM 68.0 °F 57.2 °F 68% 30.10 in 10.0 mi East 5.8 mph - N/A   Clear
9:58 PM 68.0 °F 59.0 °F 73% 30.12 in 10.0 mi East 8.1 mph - N/A   Clear
10:58 PM 68.0 °F 59.0 °F 73% 30.12 in 10.0 mi East 8.1 mph - N/A   Clear
11:58 PM 68.0 °F 60.8 °F 78% 30.12 in 10.0 mi East 8.1 mph - N/A   Clear
12:58 AM 68.0 °F 59.0 °F 73% 30.11 in 10.0 mi East 8.1 mph - N/A   Clear